ECMWFNIL_850_thetae_000.txt.gz
Theta_e
287 287 287 287 287 287 287 287 287 286 286 286 286 286 286 286 286 286 286 286 287 288 289 289 289 289 287 285 283 281 280 280 279 279 279 280 281 282 282 283 285 286
287 287 287 287 287 287 287 286 286 286 286 286 286 286 286 286 286 285 285 286 287 288 289 289 288 288 286 283 281 280 279 279 279 279 279 279 280 280 280 281 283 284
287 287 287 287 287 287 286 286 286 286 286 286 285 285 285 285 285 285 285 285 286 287 288 288 287 286 284 282 280 280 279 278 278 278 278 278 278 279 279 280 282 283
287 287 287 287 287 286 286 286 286 286 285 285 285 285 285 285 284 284 285 285 286 287 287 287 287 286 284 281 280 279 279 278 277 277 277 278 278 279 280 281 282 283
287 287 287 287 286 286 286 286 286 286 285 285 285 284 284 284 284 284 284 284 285 286 286 286 286 285 284 282 280 279 278 277 276 277 277 277 278 279 281 282 282 282
287 287 287 286 286 286 286 286 286 286 285 285 284 284 283 283 283 283 283 284 284 285 286 286 285 284 282 280 279 279 277 276 276 276 276 277 278 279 279 279 280 280
287 287 287 286 286 286 286 286 286 285 285 284 283 283 282 282 282 283 283 284 284 285 285 285 284 283 280 278 278 278 277 275 275 275 275 276 277 277 277 277 278 280
287 287 287 287 286 286 286 286 285 285 284 283 283 282 282 282 282 282 283 283 284 284 284 284 283 282 279 276 276 277 277 275 274 274 275 275 276 276 277 277 278 279
287 287 287 287 287 286 286 286 285 284 283 282 282 282 281 281 282 282 283 283 284 284 283 283 282 281 279 276 273 274 276 275 273 274 274 275 275 275 276 276 276 278
287 287 287 287 287 286 286 285 284 283 282 282 281 281 281 281 282 282 283 284 284 284 283 283 281 280 279 277 273 272 274 273 272 273 273 274 274 274 275 275 275 277
287 287 287 287 287 286 285 284 283 282 281 281 280 280 281 281 282 283 284 284 284 284 283 282 281 278 277 277 274 272 272 272 272 272 273 273 274 274 274 274 275 276
287 287 287 287 286 285 284 283 282 281 280 280 280 280 281 282 283 283 284 284 283 283 282 282 280 277 276 277 274 272 271 271 271 272 273 273 274 274 274 274 274 275
287 287 286 286 285 284 283 282 281 281 280 280 280 281 282 282 283 284 283 282 282 282 281 280 279 276 275 277 275 271 271 271 271 272 273 273 273 274 274 274 274 274
287 286 286 285 284 283 282 281 281 280 279 280 281 282 282 283 283 283 282 281 281 280 280 278 277 275 275 275 273 270 270 271 272 272 273 273 273 274 274 274 274 274
286 286 285 284 283 282 282 281 280 280 280 281 282 282 282 282 282 281 281 281 280 279 278 276 275 274 274 272 269 269 270 271 271 272 272 273 273 274 274 274 274 274
286 285 284 283 282 282 281 280 279 280 281 281 282 282 282 282 281 281 279 279 278 277 275 273 271 271 271 269 268 270 271 271 272 272 273 273 273 274 274 275 275 275
285 284 283 282 282 281 280 279 280 280 281 282 282 282 282 281 281 280 279 277 275 273 271 269 268 268 269 268 269 271 272 272 273 273 273 274 274 274 275 275 275 275
283 283 283 282 281 280 279 279 280 281 281 282 282 282 281 281 280 279 277 274 271 268 267 266 266 267 268 269 270 271 272 273 274 274 274 274 275 275 275 275 275 276
283 283 282 281 280 279 279 280 280 281 281 281 281 281 281 280 279 277 274 270 267 266 266 265 265 266 267 269 270 271 272 273 274 274 274 275 275 275 276 276 276 276
283 282 281 280 279 279 279 280 280 281 281 281 281 281 280 279 277 274 271 268 266 265 265 265 265 266 267 269 270 272 273 274 275 275 276 276 276 276 276 276 276 276
283 282 280 279 278 279 279 280 280 281 281 281 280 279 278 276 274 271 269 267 266 265 264 265 265 266 267 269 271 272 273 275 275 276 276 277 277 277 277 277 276 276
282 280 279 278 278 279 279 280 280 280 280 280 279 278 276 274 272 270 269 267 266 265 265 265 265 266 267 269 270 272 274 275 276 276 277 278 278 277 277 277 277 277
280 279 278 278 278 278 279 279 280 280 280 279 279 277 276 274 271 270 268 267 266 265 265 265 265 266 267 269 271 272 273 275 276 276 277 277 278 278 278 277 277 277
279 278 277 277 278 278 278 279 279 279 279 278 277 276 275 273 271 270 268 267 266 266 265 265 266 267 268 269 270 272 273 274 275 276 277 277 278 279 279 278 278 277
278 277 277 277 277 278 278 278 279 279 278 278 276 275 274 273 271 269 268 267 266 266 266 266 266 267 268 269 270 272 273 274 275 275 276 276 277 278 279 279 279 279
277 276 276 277 277 277 277 278 278 278 278 277 276 275 274 273 271 269 268 267 267 266 266 266 267 268 268 269 270 271 272 273 274 275 275 276 277 278 279 280 280 280

ECMWFNIL_850_thetae_003.txt.gz
Theta_e
288 288 288 288 288 288 288 288 288 288 288 288 288 288 288 288 288 288 288 287 287 286 286 286 285 285 284 284 285 285 285 286 286 286 286 285 283 282 281 280 280 280
288 288 288 288 288 288 288 288 288 288 288 288 288 288 288 288 288 288 287 287 286 286 285 285 284 284 284 284 284 284 285 285 285 285 284 282 282 281 280 280 279 279
288 288 288 288 288 288 288 288 288 288 288 288 288 288 288 288 288 287 287 286 286 285 284 284 283 283 283 283 283 284 284 285 285 284 282 281 280 279 280 279 279 279
288 288 288 288 288 288 288 288 288 288 288 288 288 288 288 288 288 287 286 285 285 284 284 283 283 283 283 283 283 284 284 284 284 283 280 279 279 278 279 279 278 278
288 288 288 288 288 288 288 288 288 288 288 288 288 288 288 287 287 286 285 284 284 283 283 283 283 283 283 283 283 283 283 282 282 280 279 278 278 276 277 278 278 277
288 288 288 288 288 288 288 288 288 288 288 288 288 287 287 286 286 285 285 284 283 283 283 283 283 283 283 284 284 283 281 280 279 278 277 277 277 276 275 276 277 277
288 288 288 288 288 288 288 288 288 288 288 288 287 287 286 286 285 284 284 283 283 283 283 283 284 284 284 284 284 283 280 278 277 276 276 276 276 276 275 274 275 276
287 287 287 287 287 288 288 288 288 288 287 287 287 286 285 285 284 284 283 283 283 283 284 284 284 284 284 284 284 283 281 278 275 275 275 275 274 274 275 274 274 275
287 287 287 287 287 288 288 288 288 287 287 286 286 285 285 284 284 283 283 283 284 284 284 284 284 284 284 284 283 282 280 278 275 274 274 274 273 273 273 273 274 274
287 287 287 287 287 287 288 287 287 287 286 286 285 285 284 283 283 283 283 284 284 284 284 284 284 284 284 283 282 281 279 278 276 273 272 272 272 272 272 272 273 273
287 287 287 287 287 287 287 287 287 286 285 285 284 284 283 283 283 283 283 284 284 284 284 284 284 284 284 283 282 280 278 277 275 273 271 270 271 271 271 271 272 273
287 287 287 287 287 287 287 287 286 285 285 284 283 283 283 283 283 283 283 284 284 283 283 283 284 283 283 282 281 279 278 276 273 271 269 269 270 270 270 271 271 272
287 287 287 287 287 287 287 286 285 285 284 283 283 282 282 283 283 283 283 283 283 283 283 283 284 283 283 281 280 279 276 273 270 269 268 269 269 270 270 271 271 272
287 287 287 287 287 287 286 285 285 284 283 283 282 282 282 283 283 283 283 283 283 283 283 283 283 283 282 280 278 276 272 269 268 268 269 269 270 270 271 272 272 273
287 287 287 287 287 286 285 285 284 283 283 282 282 282 282 283 283 283 283 283 283 283 283 283 282 281 279 276 273 271 269 268 269 269 270 270 271 271 272 273 273 273
287 287 287 287 286 286 285 284 284 283 282 282 282 282 282 283 283 283 283 283 283 283 282 282 281 279 276 272 270 269 269 270 270 270 271 271 272 272 273 273 273 274
287 287 287 286 286 285 285 284 283 282 282 281 281 282 282 283 283 283 283 283 282 282 281 280 278 277 274 271 268 268 270 270 270 271 272 272 273 273 273 274 274 274
287 287 286 286 285 285 284 283 282 281 281 281 281 282 282 282 283 283 282 282 281 280 279 278 277 275 272 269 268 268 269 270 271 271 272 272 273 274 274 274 274 275
287 287 286 285 285 284 283 282 282 281 281 281 282 282 282 282 282 282 282 281 280 279 278 277 276 274 271 268 268 269 270 270 271 271 272 273 273 274 275 275 275 275
287 286 286 285 284 284 283 282 281 281 280 281 282 282 282 282 282 281 281 280 279 278 277 277 275 273 270 268 268 269 270 271 272 272 272 273 274 274 275 275 276 276
286 285 285 285 284 283 282 281 281 280 280 281 281 282 281 281 281 281 280 279 278 277 277 276 274 272 270 268 269 270 271 271 272 272 272 273 274 274 275 276 276 277
286 285 285 284 283 282 281 281 280 280 280 281 281 281 281 280 280 280 279 278 277 276 275 275 274 272 270 269 269 270 271 271 272 272 273 273 274 274 275 275 276 277
285 285 284 283 283 282 281 280 280 280 280 281 281 281 280 280 279 279 278 277 276 275 274 274 274 272 270 270 269 270 271 271 272 272 272 273 273 273 274 275 276 276
284 284 284 283 282 281 280 280 280 280 280 280 280 280 279 279 279 278 277 276 275 274 273 272 272 271 270 270 269 270 271 271 271 272 272 272 272 273 274 274 275 275
284 283 283 282 281 280 279 279 279 279 280 279 279 279 278 278 278 278 277 276 275 274 272 271 270 269 269 269 269 270 271 271 271 271 272 272 272 273 273 274 274 275
283 283 282 281 280 279 279 279 279 279 279 279 278 278 277 277 277 277 277 275 274 273 272 270 269 269 269 269 269 270 271 271 271 271 271 272 272 273 273 274 274 275

ECMWFNIL_850_thetae_006.txt.gz
Theta_e
290 290 290 289 289 289 288 288 288 288 288 288 288 288 289 289 289 289 289 289 289 289 289 288 288 287 287 287 286 286 285 285 284 284 283 283 283 282 282 282 282 282
289 289 289 289 289 288 288 288 288 288 288 288 288 288 289 289 289 289 289 289 289 288 288 288 287 287 286 286 285 285 284 284 284 283 283 283 282 282 282 282 282 281
289 289 289 289 288 288 288 288 288 288 288 288 288 288 289 289 289 289 289 288 288 288 287 287 286 286 285 285 284 284 284 284 284 284 283 283 282 282 282 282 281 281
289 289 289 288 288 288 288 288 288 288 288 288 288 288 288 289 288 288 288 288 287 287 286 286 285 285 284 284 284 284 284 284 284 284 283 282 282 281 281 281 280 281
288 288 288 288 288 288 288 288 288 288 288 288 288 288 288 288 288 288 287 287 286 286 285 285 284 284 284 284 284 284 285 284 284 283 281 281 281 280 280 280 280 280
288 288 288 288 288 288 288 288 288 288 288 288 288 288 288 288 288 287 287 286 286 285 285 284 284 284 284 284 285 284 284 284 283 282 281 280 280 279 279 278 279 279
288 288 288 288 288 288 287 287 288 288 288 288 288 288 288 288 287 287 286 286 285 285 284 284 284 284 284 284 284 284 284 284 283 282 281 281 280 279 278 277 277 278
288 288 288 288 288 287 287 287 288 288 288 288 288 288 288 287 287 286 286 285 285 284 284 284 284 284 285 284 284 285 284 284 283 282 281 280 280 279 278 276 276 276
288 288 288 288 287 287 287 287 288 288 288 288 288 288 287 287 287 286 286 285 284 284 284 284 284 284 284 284 284 284 284 284 283 281 280 279 279 278 276 274 275 275
288 288 288 287 287 287 287 287 288 288 288 288 287 287 287 287 286 286 285 284 284 284 284 284 284 284 284 284 284 284 284 284 283 281 280 279 278 276 274 273 273 273
288 288 287 287 287 287 287 287 288 288 288 288 287 287 287 286 286 285 284 284 284 284 284 284 284 284 284 284 284 284 283 283 283 281 279 278 276 274 272 271 271 271
288 288 287 287 287 287 287 288 288 288 288 287 287 287 286 286 285 284 284 284 284 284 284 284 284 284 284 284 283 283 283 282 281 279 276 274 273 271 270 270 270 270
288 287 287 287 287 287 288 288 288 288 287 287 287 286 286 285 285 284 284 283 283 284 284 284 284 284 283 283 283 282 282 281 278 276 273 271 271 270 270 270 270 270
287 287 287 287 287 287 288 288 287 287 287 286 286 286 285 285 284 283 283 283 283 283 284 284 283 283 283 282 282 281 281 279 275 273 271 271 271 271 271 271 271 271
287 287 287 287 287 287 287 287 287 287 286 286 286 285 285 284 283 283 283 283 283 283 283 283 283 283 282 281 281 280 279 276 273 271 271 271 271 271 271 271 272 272
287 287 287 287 287 287 287 287 287 286 286 286 286 285 284 283 283 283 283 283 283 283 283 283 282 282 281 281 280 279 277 274 272 271 271 271 271 271 271 271 272 272
287 287 287 287 287 287 287 287 286 286 286 286 285 284 283 283 282 282 282 283 283 283 283 282 282 281 281 280 280 278 276 273 272 271 271 271 272 272 272 272 272 272
287 287 287 287 287 287 287 286 286 286 286 285 285 284 283 282 282 282 282 282 282 282 282 282 281 281 280 280 280 278 275 272 271 272 272 272 272 272 272 272 273 273
287 287 287 287 287 287 286 286 286 286 286 285 284 283 282 282 282 282 282 282 282 282 281 281 281 280 280 280 279 278 274 272 272 272 272 272 273 272 273 273 273 273
287 287 287 287 287 287 286 286 286 285 285 285 284 283 282 281 282 282 282 282 281 281 281 280 280 280 280 280 280 278 274 272 272 272 272 272 272 272 272 272 273 273
287 287 287 287 287 286 286 285 285 285 285 284 283 282 281 281 281 281 281 281 281 281 280 280 280 280 280 280 280 278 274 272 272 272 272 272 272 272 272 272 273 273
287 287 287 287 286 285 285 285 285 285 284 284 283 282 281 281 281 281 281 281 281 280 279 280 280 279 279 280 279 276 273 272 272 272 272 272 272 272 272 272 272 272
287 287 287 286 285 285 285 285 284 284 284 283 282 281 281 281 280 280 280 280 280 279 279 279 280 279 279 279 277 274 272 272 272 272 273 272 272 272 272 272 272 272
287 287 286 286 285 285 285 285 284 283 283 283 282 281 280 280 280 280 280 280 279 279 279 279 279 279 278 278 275 272 272 272 272 273 273 273 273 273 273 273 273 273
287 286 286 285 284 284 284 284 283 283 283 282 281 280 280 280 279 279 279 279 279 279 279 279 279 278 278 276 273 272 272 273 273 273 273 273 273 273 274 274 274 274
286 286 285 284 284 284 284 283 283 283 283 282 280 280 279 279 279 279 279 278 278 278 279 278 277 277 276 274 272 272 272 273 273 274 274 274 274 274 274 274 274 274

ECMWFNIL_850_thetae_009.txt.gz
Theta_e
292 292 292 292 292 292 292 292 292 292 292 291 291 291 290 290 289 289 289 289 289 289 289 289 289 289 288 288 287 287 287 287 286 286 286 285 285 285 285 285 285 284
292 292 292 292 292 291 291 291 291 291 291 291 290 290 290 290 289 289 289 289 289 289 289 289 288 288 288 287 287 287 286 286 286 285 285 285 285 285 285 285 284 284
292 292 292 291 291 291 291 291 291 291 290 290 290 290 290 289 289 289 289 289 289 289 288 288 288 288 287 287 286 286 286 286 285 285 285 285 285 285 285 285 284 284
292 292 291 291 291 291 290 290 290 290 290 290 290 289 289 289 289 289 289 289 289 288 288 288 288 287 287 287 286 286 285 285 285 285 285 285 285 285 285 284 284 283
292 291 291 290 290 290 290 290 290 290 290 289 289 289 289 288 288 288 289 288 288 288 288 287 287 287 287 286 285 285 285 285 285 285 285 285 285 284 283 283 283 282
292 291 290 290 290 290 290 290 290 289 289 289 289 288 288 288 288 288 288 288 288 287 287 287 287 286 286 285 285 285 285 285 285 285 285 285 284 283 283 282 282 282
291 291 290 290 290 289 289 289 289 289 289 289 288 288 288 288 288 288 288 288 287 287 287 287 286 286 285 285 285 285 285 285 285 284 284 284 284 283 283 282 282 281
291 290 290 290 289 289 289 289 289 289 289 288 288 288 288 288 288 288 288 287 287 287 286 286 286 285 285 284 284 285 284 284 284 284 284 283 283 283 283 282 282 281
291 290 289 289 289 289 289 289 289 288 288 288 288 288 288 288 288 288 287 287 287 286 286 286 285 285 284 284 284 284 284 284 284 284 283 283 283 283 282 282 281 280
291 290 289 289 289 289 289 289 288 288 288 288 288 288 288 288 288 287 287 286 286 286 286 285 285 284 284 284 284 284 284 283 283 283 283 283 283 283 283 282 281 280
290 290 289 288 288 288 288 288 288 288 288 288 288 288 288 288 287 287 287 286 286 286 285 285 284 284 284 284 283 283 283 283 283 283 283 283 283 283 282 281 280 278
290 289 289 288 288 288 288 288 288 288 288 288 288 288 288 287 287 287 286 286 286 285 285 285 284 284 283 283 283 283 283 283 282 282 282 282 282 282 281 280 278 277
290 289 288 288 288 288 288 288 288 288 288 288 288 288 287 287 287 287 286 286 286 285 285 284 284 283 283 283 283 283 282 282 282 282 282 282 282 281 281 279 277 276
289 289 288 287 288 288 288 288 288 288 288 288 288 287 287 287 287 286 286 286 285 285 284 284 283 283 283 283 282 282 282 281 281 282 282 282 282 281 280 278 276 275
289 288 287 287 288 288 288 288 288 288 288 288 288 287 287 287 286 286 286 285 285 284 284 283 283 283 283 282 282 281 281 281 281 281 282 281 281 279 278 276 275 274
288 288 287 287 287 287 287 288 288 288 288 288 287 287 287 287 286 286 285 285 285 284 283 283 283 283 282 282 281 281 280 280 281 281 281 280 278 277 276 275 274 273
288 287 287 287 287 287 287 288 288 288 288 288 287 287 287 286 286 286 285 285 284 284 283 283 282 282 282 281 281 280 280 280 280 279 279 278 276 275 274 274 274 274
288 287 287 287 287 287 288 288 288 288 288 287 287 287 286 286 286 285 285 285 284 283 283 282 282 282 281 281 280 280 280 279 279 278 278 277 275 274 274 273 273 274
287 287 287 287 287 287 288 288 288 288 287 287 287 286 286 286 285 285 285 284 283 283 282 282 282 281 281 280 280 280 280 279 278 277 276 276 275 274 274 273 273 273
287 287 287 287 287 287 288 288 288 287 287 287 286 286 286 285 285 285 284 284 283 282 282 281 281 280 280 280 280 280 279 279 278 277 275 275 274 274 274 274 273 273
287 287 287 287 287 287 288 288 287 287 287 286 286 286 285 285 285 284 284 283 282 282 281 281 280 280 280 279 279 279 279 279 278 277 275 275 274 274 274 274 274 274
286 287 287 287 287 287 287 287 287 287 286 286 285 285 285 284 284 284 284 283 282 281 281 281 280 279 279 279 279 279 279 279 278 276 274 274 274 274 274 274 274 275
286 287 287 287 287 287 287 287 287 286 286 285 285 284 284 284 284 284 283 282 281 281 280 280 279 279 279 279 279 279 279 278 276 274 274 274 274 274 274 274 275 275
286 287 287 287 287 287 287 287 286 286 285 284 284 283 283 283 283 283 282 282 281 280 280 280 279 279 279 279 279 279 278 277 275 274 274 274 274 274 274 275 275 275
286 287 287 287 287 287 287 287 286 285 284 283 283 282 282 283 283 283 282 281 280 280 279 279 279 278 278 278 279 278 277 275 274 274 274 274 274 274 275 275 275 274
286 286 287 287 287 287 287 286 286 285 284 283 282 282 282 282 282 282 281 280 280 279 279 278 278 278 278 278 278 277 276 274 273 274 274 274 274 274 274 274 274 273